Regional Weather Roundup
Issued by NWS

Home | Current Version | Previous Version | Text Only | Print | Product List | Glossary Off
Versions: 1 2 3 4 5 6 7 8 9 10 11 12 13 14 15 16 17 18 19 20 21 22 23 24 25 26 27 28 29 30 31 32 33 34 35 36 37 38 39 40 41 42 43 44 45 46 47 48 49 50

000
ASUS43 KOAX 220702
RWRNE

WEATHER ROUNDUP FOR NEBRASKA
NATIONAL WEATHER SERVICE OMAHA NE
200 AM CDT SUN OCT 22 2017

NOTES: SATELLITE DATA IS BEING USED TO AUGMENT CLOUD COVER ABOVE
       12000 FEET.
       "FAIR" INDICATES FEW OR NO CLOUDS BELOW 12,000 FEET WITH NO
       SIGNIFICANT WEATHER AND/OR OBSTRUCTIONS TO VISIBILITY.


NEZ001>004-019>022-054>056-220800-
NEBRASKA PANHANDLE

CITY           SKY/WX    TMP DP  RH WIND       PRES   REMARKS
SCOTTSBLUFF    CLEAR     33  18  53 NW5       30.06F WCI  29
ALLIANCE       CLEAR     26  18  71 W12       30.04S HAZE    WCI  16
CHADRON        CLEAR     29  13  51 SW7       30.02S WCI  22
KIMBALL        CLEAR     31  17  54 CALM      30.09F
SIDNEY         CLEAR     36  18  48 W10       30.10F WCI  28
$$

NEZ057>060-069>072-079>082-220800-
SOUTHWEST NEBRASKA

CITY           SKY/WX    TMP DP  RH WIND       PRES   REMARKS
NORTH PLATTE   CLEAR     29  25  85 NE6       30.07F WCI  23
IMPERIAL       CLEAR     41  20  43 NW10      30.09F
LEXINGTON      CLEAR     33  27  77 W5        30.06F WCI  29
MCCOOK         CLEAR     34  25  69 W9        30.09F WCI  27
OGALLALA       CLEAR     36  24  61 W5        30.09R WCI  32
$$

NEZ005>010-023>029-035>040-094-220800-
NORTH CENTRAL NEBRASKA

CITY           SKY/WX    TMP DP  RH WIND       PRES   REMARKS
VALENTINE      CLEAR     34  29  82 W6        30.03R WCI  29
AINSWORTH      CLEAR     35  30  82 SW7       30.03R WCI  29
BROKEN BOW     CLEAR     31  27  85 CALM      30.05F
O`NEILL        CLEAR     39  32  75 W6        30.02S
ORD            CLEAR     32  30  92 N3        30.03F
THEDFORD       CLEAR     33  27  77 CALM      30.06F
$$

NEZ041-046>049-061>064-073>077-083>087-220800-
SOUTH CENTRAL NEBRASKA

CITY           SKY/WX    TMP DP  RH WIND       PRES   REMARKS
GRAND ISLAND   CLOUDY    37  36  96 W6        30.05F WCI  32
AURORA         PTCLDY    40  37  86 W7        30.02F
HASTINGS       CLOUDY    40  34  79 W3        30.04F
HEBRON         CLOUDY    46  41  83 CALM      30.03S
HOLDREGE       CLEAR     38  28  69 NW6       30.06R WCI  33
KEARNEY        CLEAR     38  30  73 NW8       30.05F WCI  32
YORK           CLOUDY    41  39  93 CALM      30.02F
$$

NEZ011>018-030>034-042>045-220800-
NORTHEAST NEBRASKA

CITY           SKY/WX    TMP DP  RH WIND       PRES   REMARKS
NORFOLK        CLOUDY    38  35  89 CALM      30.01S
ALBION         PTCLDY    32  31  96 NW3       30.03F
BLAIR          CLOUDY    49  40  73 W5        29.98F
COLUMBUS       CLOUDY    39  37  92 W6        30.01F WCI  35
FREMONT        CLOUDY    44  40  85 W3        29.99F
TEKAMAH        CLOUDY    45  41  86 CALM      29.99F
WAYNE          PTCLDY    39  37  91 CALM      30.00F
$$

NEZ050>053-065>068-078-088>093-220800-
SOUTHEAST NEBRASKA

CITY           SKY/WX    TMP DP  RH WIND       PRES   REMARKS
LINCOLN        MOCLDY    49  40  71 CALM      30.01F
OMAHA EPPLEY   CLOUDY    50  40  68 NW3       29.99F
BEATRICE       MOCLDY    47  42  82 CALM      30.00F
FALLS CITY     MOCLDY    52  44  74 NW7       29.98F
NEBRASKA CITY  CLOUDY    51  42  71 NW5       29.99S
PLATTSMOUTH    CLOUDY    49  43  78 W7        29.98F
$$

NEZ044-045-051>053-067-220800-
OMAHA AREA

CITY           SKY/WX    TMP DP  RH WIND       PRES   REMARKS
OMAHA EPPLEY   CLOUDY    50  40  68 NW3       29.99F
BLAIR          CLOUDY    49  40  73 W5        29.98F
FREMONT        CLOUDY    44  40  85 W3        29.99F
MILLARD        MOCLDY    50  43  77 CALM      29.99F
OFFUTT AFB     MOCLDY    49  43  78 NW6       29.98F
PLATTSMOUTH    CLOUDY    49  43  78 W7        29.98F
WAHOO          FAIR      48  40  73 NW5       30.00F
$$



USA.gov is the U.S. government's official web portal to all federal, state and local government web resources and services.